Weather History for Sheridan, WY

Change the Weather History Date:

Sunday, December 9, 2012

  Actual Average Record
Temperature  
Mean Temperature 9 °F 23 °F  
Max Temperature 18 °F 35 °F 69 °F (1957)
Min Temperature -1 °F 11 °F -41 °F (1919)
Degree Days  
Heating Degree Days 56 42  
Month to date heating degree days 295 368  
Since 1 July heating degree days 1979 2246  
Cooling Degree Days 0 0  
Month to date cooling degree days 0 0  
Year to date cooling degree days 664 419  
Moisture  
Dew Point 4 °F    
Average Humidity 74    
Maximum Humidity 87    
Minimum Humidity 61    
Precipitation  
Precipitation 0.00 in 0.02 in 0.28 in (1938)
Month to date precipitation 0.29 0.18  
Year to date precipitation 9.32 13.78  
Sea Level Pressure  
Sea Level Pressure 30.33 in    
Wind  
Wind Speed 3 mph (West)    
Max Wind Speed 17 mph    
Max Gust Speed 20 mph    
Visibility 10 miles    
Events      
T = Trace of Precipitation, MM = Missing Value Source: NWS Daily Summary

Daily Weather History Graph

Daily Weather History Graph

Search for Another Location

Airport:

Trip Planner

Search our weather history database for the weather conditions in past years. The results will help you decide how hot, cold, wet, or windy it might be!

Date:

Astronomy

Dec. 09, 2012 Rise Set
Actual Time 7:33 AM MST 4:27 PM MST
Civil Twilight 7:00 AM MST 5:00 PM MST
Nautical Twilight 6:23 AM MST 5:37 PM MST
Astronomical Twilight 5:48 AM MST 6:12 PM MST
Moon 3:02 AM MST (12/9) 1:42 PM MST (12/9)
Length of Visible Light 10h 00m
Length of Day
8h 53m
Waning Crescent, 18% of the Moon is Illuminated
Dec 9
Waning Crescent
Dec 13
New
Dec 19
First Quarter
Dec 28
Full
Jan 4
Last Quarter

Hourly Weather History & Observations

Time (MST) Temp. Windchill Dew Point Humidity Pressure Visibility Wind Dir Wind Speed Gust Speed Precip Events Conditions
12:53 AM 9.0 °F -3.2 °F 3.9 °F 80% 30.37 in 10.0 mi West 8.1 mph - N/A   Overcast
1:10 AM 8.6 °F -5.5 °F 5.0 °F 85% 30.19 in 10.0 mi WNW 10.4 mph - N/A   Overcast
1:39 AM 8.6 °F -6.3 °F 3.2 °F 79% 30.20 in 10.0 mi NW 11.5 mph - N/A   Overcast
1:53 AM 9.0 °F -6.6 °F 3.9 °F 80% 30.39 in 10.0 mi NNW 12.7 mph - N/A   Overcast
2:53 AM 8.1 °F -9.0 °F 3.9 °F 83% 30.41 in 10.0 mi NW 15.0 mph - N/A   Mostly Cloudy
3:53 AM 9.0 °F - 5.0 °F 84% 30.42 in 10.0 mi Calm Calm - N/A   Overcast
4:53 AM 9.0 °F 2.4 °F 3.9 °F 80% 30.44 in 10.0 mi NNW 3.5 mph - N/A   Overcast
5:53 AM 5.0 °F -2.1 °F 1.0 °F 84% 30.48 in 10.0 mi NW 3.5 mph - N/A   Scattered Clouds
6:53 AM 1.0 °F - -2.9 °F 83% 30.50 in 10.0 mi Calm Calm - N/A   Clear
7:53 AM -0.9 °F - -4.0 °F 87% 30.52 in 10.0 mi Calm Calm - N/A   Clear
8:53 AM 3.0 °F -4.4 °F -0.0 °F 87% 30.52 in 10.0 mi South 3.5 mph - N/A   Clear
9:53 AM 8.1 °F - 3.0 °F 80% 30.53 in 10.0 mi Calm Calm - N/A   Clear
10:53 AM 12.0 °F - 3.9 °F 70% 30.50 in 10.0 mi Calm Calm - N/A   Clear
11:53 AM 10.4 °F - 5.0 °F 79% 30.23 in 10.0 mi Calm Calm - N/A   Clear
12:53 PM 16.0 °F - 5.0 °F 62% 30.41 in 10.0 mi Calm Calm - N/A   Clear
1:53 PM 16.0 °F - 5.0 °F 62% 30.37 in 10.0 mi Calm Calm - N/A   Clear
2:53 PM 15.1 °F 9.4 °F 6.1 °F 68% 30.34 in 10.0 mi South 3.5 mph - N/A   Clear
3:53 PM 14.0 °F - 7.0 °F 74% 30.32 in 10.0 mi Calm Calm - N/A   Clear
4:53 PM 7.0 °F - 1.0 °F 77% 30.31 in 10.0 mi Calm Calm - N/A   Clear
5:53 PM 8.1 °F 1.4 °F 1.9 °F 76% 30.27 in 10.0 mi South 3.5 mph - N/A   Clear
6:53 PM 10.9 °F - 3.0 °F 70% 30.21 in 10.0 mi Calm Calm - N/A   Clear
7:53 PM 7.0 °F -7.5 °F 1.0 °F 77% 30.21 in 10.0 mi NW 10.4 mph - N/A   Clear
8:53 PM 10.9 °F - 5.0 °F 77% 30.17 in 10.0 mi Calm Calm - N/A   Overcast
9:53 PM 10.0 °F 1.8 °F 6.1 °F 84% 30.12 in 10.0 mi South 4.6 mph - N/A   Overcast
10:53 PM 12.9 °F 6.9 °F 6.1 °F 74% 30.07 in 10.0 mi South 3.5 mph - N/A   Overcast
11:53 PM 15.1 °F - 8.1 °F 74% 30.06 in 10.0 mi Calm Calm - N/A   Overcast